Wind_Speed
6 5 5 5 5 4 4 4 5 6 7 7 7 8 9 8 8 9 9 9 10 10 10 11 12 12 13 13 13 14 14 14 15 15 15 16 17 18 18 19 20 21 22
5 4 4 3 4 3 3 4 4 4 5 6 5 5 6 7 7 8 8 8 9 9 9 10 10 11 11 12 12 13 13 13 14 14 15 15 16 17 18 19 20 20 22
3 3 3 2 2 1 2 2 2 3 4 4 5 5 5 5 5 6 7 7 8 8 8 8 9 9 10 11 11 12 12 13 14 14 15 15 15 16 18 19 20 20 21
2 2 2 1 1 1 1 1 1 2 3 4 4 4 3 4 4 5 5 6 6 6 7 7 8 9 9 10 10 11 12 12 13 13 14 14 15 15 16 18 19 20 21
2 2 2 1 1 1 1 0 0 1 1 2 2 2 2 3 3 3 4 5 5 5 6 7 8 8 9 10 10 10 11 11 12 12 13 13 14 15 16 17 18 19 20
1 1 2 2 2 2 2 2 2 3 3 2 2 1 0 1 1 2 2 3 4 4 5 6 7 8 8 8 9 9 10 10 11 12 13 13 14 15 16 17 18 19 20
1 0 1 1 2 2 2 3 3 3 3 3 2 2 1 1 2 2 2 3 3 4 5 6 7 7 8 8 8 9 10 11 11 12 12 13 14 16 17 17 19 20 21
2 1 1 1 1 1 1 2 2 2 2 2 2 2 1 2 2 2 2 3 4 5 5 6 7 8 8 8 9 10 10 11 12 12 13 13 14 15 16 17 18 19 20
3 2 2 1 0 1 1 1 1 1 1 1 1 1 1 1 2 2 3 4 4 5 6 7 8 8 9 9 10 10 11 12 12 13 13 14 15 16 17 18 19 20 20
4 3 3 2 2 2 1 1 1 1 1 1 1 1 1 2 2 3 4 4 5 6 7 8 9 9 10 10 10 11 12 13 13 14 14 15 15 16 17 18 19 19 20
4 4 4 4 3 3 2 2 2 2 2 2 2 2 3 3 3 4 4 5 6 7 8 9 9 10 10 11 11 12 13 13 14 14 15 16 16 17 18 18 19 20 20
6 5 5 5 5 4 4 4 3 3 3 3 3 3 4 4 4 5 5 6 7 8 9 9 10 10 11 11 12 13 13 14 15 16 16 17 17 18 18 19 19 20 21
7 6 6 6 6 6 6 5 5 5 5 5 5 5 5 6 6 6 7 8 8 9 10 10 11 11 11 12 13 14 14 15 16 16 17 17 18 18 19 19 20 21 21
8 8 7 7 7 7 6 6 6 6 6 6 6 7 7 7 8 8 8 9 10 10 11 12 12 13 13 13 14 15 15 16 16 17 18 18 19 19 20 20 21 22 22
9 9 9 9 8 8 8 8 8 8 8 8 8 8 8 9 9 9 10 10 11 12 12 13 14 14 14 15 16 16 17 17 18 18 19 19 20 21 21 21 22 22 23
11 10 10 10 10 9 9 9 9 9 9 9 9 9 10 10 11 11 11 12 12 13 14 15 15 16 16 16 17 18 18 19 19 20 20 20 21 22 22 23 23 23 24
13 12 11 11 11 11 10 10 10 11 11 11 11 11 11 12 12 13 13 14 14 15 16 16 17 17 18 18 18 19 19 20 21 21 22 22 22 23 23 24 25 25 25
14 14 13 12 12 12 12 12 12 12 12 12 13 13 13 13 14 15 15 16 16 17 17 18 18 19 19 20 20 21 21 21 22 23 23 24 24 25 25 25 25 25 25
15 15 15 14 14 13 13 13 13 14 14 14 14 14 15 15 16 16 17 17 18 19 19 19 20 20 21 21 22 22 22 23 24 24 25 26 26 26 26 26 26 26 26
16 17 16 15 15 15 15 15 15 15 16 16 16 16 16 17 18 18 19 19 20 20 21 21 22 22 23 23 23 24 24 25 25 26 26 27 27 28 27 27 27 27 28
18 18 17 17 17 17 16 17 17 17 17 17 18 18 18 19 19 20 20 21 21 22 22 23 23 24 24 25 25 25 26 26 27 27 28 28 28 29 29 29 29 29 29
19 18 18 18 18 18 18 19 19 19 19 19 20 20 20 21 21 21 22 23 23 24 24 25 25 25 26 26 26 27 28 28 29 29 29 30 29 29 30 30 31 31 31
19 19 19 19 20 20 20 20 20 20 21 21 21 22 22 22 22 22 23 24 25 26 26 26 27 27 27 27 28 29 29 30 30 30 31 31 32 32 32 32 32 33 33
20 20 20 20 21 21 22 22 22 22 22 22 23 23 23 23 23 24 25 26 26 27 28 28 28 28 29 29 29 30 30 31 31 32 32 33 34 34 34 34 34 34 34
21 21 21 21 21 22 23 23 23 22 23 23 24 24 24 25 25 26 27 28 29 29 30 29 29 30 30 31 31 32 32 33 33 33 33 34 35 36 36 36 36 36 35
22 22 22 22 23 24 24 24 24 24 24 24 24 25 25 26 27 28 28 29 29 30 31 31 31 32 33 33 34 34 34 35 36 36 36 37 37 37 37 37 37 36 36
Wind_Direction
308 307 303 299 290 269 254 242 239 238 237 238 242 244 248 253 255 260 263 265 270 275 275 278 279 276 276 276 278 279 279 276 274 271 268 265 262 259 258 257 254 252 251
313 306 302 301 304 279 251 249 246 242 239 234 236 244 251 257 263 267 270 275 280 282 281 282 284 282 281 281 281 281 280 277 276 274 273 269 266 261 259 258 257 256 255
323 322 306 296 303 283 246 254 242 231 234 238 238 242 252 261 265 272 279 282 286 286 289 288 288 289 288 286 286 286 284 282 280 277 274 271 270 267 263 261 261 260 259
337 331 332 318 308 298 281 258 242 227 232 237 237 234 249 271 277 290 292 290 291 292 298 300 300 298 295 292 292 290 289 288 285 281 276 273 270 270 268 266 265 263 262
10 20 32 65 70 68 81 77 170 187 183 198 208 229 251 279 288 296 299 300 302 304 308 311 310 307 305 303 300 298 296 295 291 286 283 280 274 272 272 271 269 268 267
356 49 69 85 83 80 89 92 106 127 137 145 138 131 140 319 313 316 316 313 315 315 315 316 314 313 314 313 311 307 305 304 300 293 288 284 281 278 277 275 273 271 268
268 221 99 93 84 89 96 99 109 109 105 99 96 95 70 21 353 341 339 336 334 329 325 324 326 323 319 319 318 315 312 310 308 303 297 292 288 285 281 278 276 273 271
244 225 194 132 105 105 117 122 112 106 101 91 74 65 30 356 345 338 339 341 340 336 335 334 332 328 323 321 320 319 316 313 310 307 304 299 295 291 287 283 281 279 277
235 226 213 203 200 179 159 157 157 141 133 120 82 45 353 337 334 327 322 326 332 335 333 333 332 329 326 323 321 319 317 315 313 311 308 304 300 296 293 289 286 284 281
244 244 239 241 236 228 230 224 201 210 220 239 307 311 302 312 322 324 323 325 329 332 334 333 331 330 327 325 323 323 322 320 316 313 310 308 306 302 298 294 291 288 284
247 247 252 252 248 245 246 249 240 235 242 261 277 281 287 295 307 315 319 322 325 329 330 330 329 329 329 327 325 324 322 320 318 316 313 311 308 306 304 299 295 291 287
250 250 254 258 257 254 256 257 257 254 256 262 272 284 291 296 302 310 315 319 323 326 327 328 327 327 327 326 325 323 322 321 320 318 317 314 311 309 307 304 300 296 293
258 258 260 262 260 257 257 259 260 259 261 266 273 280 287 294 299 302 307 311 317 321 323 324 325 324 324 323 322 322 322 322 321 320 318 316 314 311 309 308 304 301 298
261 263 264 264 260 257 259 263 263 262 263 267 274 279 284 290 293 296 301 307 312 314 317 319 320 320 319 319 319 320 321 321 321 320 319 317 316 314 312 309 306 304 300
259 264 263 264 264 263 266 270 268 266 267 269 275 281 285 287 290 293 297 302 307 310 312 315 317 317 317 318 319 319 320 320 320 320 319 319 317 315 314 312 309 307 304
255 261 262 263 265 267 269 270 271 271 269 270 274 280 284 287 289 292 295 298 302 306 309 311 315 315 316 316 317 318 318 318 318 318 318 317 317 316 315 313 310 308 307
257 260 262 265 265 264 267 270 270 272 273 273 274 278 283 286 288 289 292 296 300 303 307 308 311 313 313 313 315 316 316 317 316 316 317 316 315 314 313 312 310 309 308
255 255 257 261 264 266 267 269 271 274 274 275 276 278 281 284 286 287 290 293 297 300 303 306 309 311 311 311 312 313 313 314 315 315 315 315 314 314 313 312 310 309 308
256 255 257 259 261 263 266 268 271 275 277 277 277 279 281 284 286 288 290 292 295 298 301 303 305 307 308 309 309 311 312 313 313 314 314 314 314 313 313 312 310 309 308
258 258 258 260 262 264 266 268 270 273 277 278 277 279 280 282 285 287 289 291 294 296 299 301 303 304 305 306 307 309 310 311 311 312 311 312 312 312 311 310 310 309 308
261 260 260 261 262 264 267 268 270 273 276 277 277 277 279 282 284 286 287 290 293 295 297 299 300 302 303 305 306 307 308 309 310 310 309 310 310 310 309 309 308 308 307
262 263 264 264 263 265 268 270 273 274 276 278 278 278 280 282 283 286 288 290 293 295 296 297 298 300 302 303 304 305 307 308 309 309 309 309 309 309 309 308 307 306 306
260 262 264 263 263 266 269 272 273 275 276 277 279 280 280 281 281 284 288 290 292 294 295 296 297 298 299 301 303 304 305 305 307 307 307 308 309 308 307 306 306 305 305
258 260 262 263 265 267 269 272 274 276 276 276 277 278 279 280 282 286 288 290 291 293 294 294 295 297 299 300 301 302 303 304 304 305 305 306 307 307 307 306 305 305 304
256 261 263 264 266 268 269 271 273 275 277 277 278 278 279 281 283 285 286 289 291 292 293 293 295 297 299 299 300 302 302 303 304 304 304 305 305 305 305 305 305 304 303
258 261 264 266 267 269 270 271 272 275 277 278 277 278 279 280 281 283 285 287 290 292 294 294 295 297 298 299 300 301 302 303 304 304 304 304 304 304 305 305 304 303 302
Height
5842 5841 5841 5841 5840 5841 5843 5843 5845 5846 5847 5849 5851 5852 5853 5854 5855 5857 5857 5858 5859 5859 5860 5860 5860 5860 5860 5860 5861 5861 5861 5861 5862 5862 5863 5863 5864 5865 5867 5868 5869 5870 5872
5841 5841 5841 5841 5841 5841 5842 5843 5844 5845 5846 5848 5849 5850 5851 5853 5854 5855 5855 5856 5856 5857 5857 5858 5858 5858 5858 5858 5858 5858 5858 5858 5858 5859 5859 5860 5861 5861 5862 5863 5864 5865 5867
5841 5841 5841 5841 5841 5841 5842 5843 5844 5845 5846 5847 5848 5850 5851 5852 5852 5853 5853 5854 5854 5854 5855 5855 5856 5856 5856 5855 5855 5855 5855 5855 5855 5855 5856 5856 5857 5857 5858 5859 5860 5861 5862
5841 5841 5841 5841 5842 5842 5842 5843 5843 5844 5845 5847 5848 5849 5850 5851 5852 5852 5852 5853 5853 5853 5853 5854 5854 5853 5853 5853 5853 5852 5852 5852 5852 5852 5852 5852 5852 5853 5854 5854 5855 5856 5857
5841 5841 5841 5842 5842 5842 5842 5843 5843 5844 5845 5846 5847 5848 5849 5850 5851 5851 5851 5851 5852 5852 5852 5852 5852 5852 5851 5850 5850 5850 5849 5849 5849 5849 5849 5848 5849 5849 5850 5850 5851 5851 5852
5842 5842 5842 5842 5843 5843 5843 5843 5844 5845 5846 5846 5847 5848 5849 5850 5850 5850 5851 5851 5851 5851 5851 5851 5851 5850 5849 5849 5848 5847 5847 5846 5846 5845 5845 5845 5845 5845 5845 5846 5846 5847 5847
5842 5842 5843 5843 5843 5843 5844 5844 5845 5845 5846 5846 5847 5848 5849 5849 5850 5850 5851 5851 5851 5850 5850 5850 5849 5849 5848 5847 5847 5846 5845 5844 5843 5842 5842 5841 5841 5841 5841 5841 5841 5841 5842
5842 5843 5843 5843 5843 5844 5844 5845 5845 5846 5846 5847 5848 5848 5849 5849 5850 5850 5850 5850 5850 5850 5849 5849 5848 5848 5847 5846 5845 5844 5843 5842 5841 5840 5839 5838 5838 5837 5837 5837 5836 5836 5836
5842 5842 5843 5843 5843 5844 5844 5845 5845 5846 5847 5847 5848 5848 5849 5849 5850 5850 5850 5850 5850 5849 5849 5848 5847 5846 5845 5844 5843 5842 5841 5840 5839 5837 5836 5836 5835 5834 5833 5832 5832 5831 5831
5841 5842 5842 5843 5843 5844 5844 5845 5845 5846 5847 5847 5848 5848 5849 5849 5849 5850 5850 5849 5849 5848 5848 5847 5846 5845 5844 5843 5842 5841 5839 5838 5836 5835 5834 5832 5831 5830 5829 5828 5827 5826 5825
5841 5841 5842 5842 5843 5843 5844 5844 5845 5846 5846 5847 5847 5848 5848 5849 5849 5849 5849 5848 5848 5847 5847 5846 5845 5844 5843 5841 5840 5839 5837 5835 5834 5832 5831 5829 5827 5826 5824 5823 5822 5821 5820
5840 5840 5841 5841 5842 5842 5843 5844 5844 5845 5845 5846 5846 5847 5848 5848 5848 5848 5848 5847 5847 5846 5845 5844 5843 5842 5841 5840 5838 5837 5835 5833 5831 5829 5827 5825 5823 5822 5820 5818 5817 5816 5814
5838 5839 5840 5840 5841 5841 5842 5843 5843 5844 5844 5845 5845 5846 5846 5847 5847 5846 5846 5846 5845 5845 5844 5843 5842 5840 5839 5837 5836 5834 5832 5830 5828 5826 5824 5822 5820 5818 5816 5814 5812 5810 5809
5837 5838 5838 5839 5839 5840 5841 5841 5842 5842 5843 5843 5844 5844 5845 5845 5845 5845 5844 5844 5843 5843 5842 5841 5839 5838 5837 5835 5833 5831 5829 5827 5825 5823 5821 5818 5816 5814 5811 5809 5807 5805 5803
5834 5836 5837 5837 5838 5838 5839 5839 5840 5840 5841 5841 5842 5842 5842 5843 5843 5842 5842 5842 5841 5840 5839 5838 5837 5835 5834 5832 5830 5828 5826 5824 5822 5819 5817 5814 5812 5809 5807 5804 5802 5800 5797
5831 5833 5834 5835 5835 5836 5836 5837 5837 5838 5838 5839 5839 5840 5840 5840 5840 5840 5839 5839 5838 5837 5836 5835 5834 5832 5830 5828 5826 5824 5822 5820 5818 5815 5813 5810 5807 5805 5802 5799 5796 5794 5791
5829 5830 5831 5832 5833 5833 5834 5834 5835 5835 5836 5836 5836 5837 5837 5837 5836 5836 5836 5835 5835 5834 5833 5831 5830 5828 5826 5824 5822 5820 5818 5816 5813 5810 5808 5805 5802 5800 5797 5793 5791 5788 5785
5826 5827 5828 5829 5830 5830 5831 5831 5832 5832 5832 5833 5833 5833 5833 5833 5833 5832 5832 5831 5830 5829 5828 5827 5825 5824 5822 5820 5817 5815 5813 5810 5808 5805 5802 5800 5797 5793 5791 5788 5785 5782 5779
5822 5823 5824 5825 5826 5827 5827 5828 5828 5828 5829 5829 5829 5829 5829 5829 5828 5828 5827 5827 5826 5825 5823 5822 5820 5819 5817 5815 5812 5810 5808 5805 5803 5800 5797 5794 5791 5788 5784 5781 5778 5775 5772
5817 5818 5820 5821 5822 5823 5823 5824 5824 5824 5824 5825 5825 5825 5824 5824 5824 5823 5823 5822 5821 5819 5818 5817 5815 5813 5811 5809 5807 5805 5802 5800 5797 5794 5791 5788 5785 5781 5778 5775 5772 5768 5765
5813 5814 5815 5816 5817 5818 5818 5819 5819 5819 5820 5820 5820 5819 5819 5819 5819 5818 5817 5816 5815 5814 5813 5811 5809 5807 5805 5803 5801 5798 5796 5793 5790 5787 5784 5781 5778 5774 5771 5767 5764 5761 5757
5808 5809 5810 5811 5812 5813 5813 5814 5814 5814 5814 5814 5813 5813 5813 5813 5812 5812 5811 5810 5809 5808 5806 5805 5803 5801 5798 5796 5794 5792 5789 5786 5783 5780 5777 5774 5770 5767 5763 5760 5756 5753 5749
5803 5804 5805 5806 5807 5807 5808 5808 5808 5808 5808 5808 5808 5808 5807 5806 5806 5805 5805 5804 5803 5801 5800 5798 5796 5794 5792 5789 5787 5784 5781 5778 5775 5772 5769 5766 5762 5758 5755 5751 5747 5744 5740
5798 5799 5800 5801 5801 5802 5802 5802 5802 5802 5802 5801 5801 5801 5801 5800 5799 5798 5798 5797 5796 5794 5792 5790 5788 5786 5784 5782 5779 5776 5773 5770 5767 5764 5761 5757 5753 5749 5746 5742 5738 5734 5731
5792 5793 5794 5795 5795 5796 5796 5796 5796 5796 5795 5795 5794 5794 5794 5793 5792 5791 5791 5790 5788 5786 5785 5782 5780 5778 5775 5773 5770 5767 5764 5761 5758 5755 5752 5748 5744 5740 5736 5732 5729 5725 5721
5786 5787 5788 5788 5789 5789 5789 5789 5789 5789 5788 5788 5787 5787 5786 5786 5785 5784 5783 5781 5780 5778 5776 5774 5771 5769 5766 5763 5761 5758 5755 5751 5748 5744 5741 5738 5734 5730 5726 5722 5718 5714 5710